Location: Yttersel
(66.6667°N, 22.3833°E)
Time: 15:25:39
(UTC+00:00)

Daily predictions for brighter satellites

Satellite Brightness Start Highest point End
(mag) Time Altitude Azimuth Time Altitude Azimuth Time Altitude Azimuth
Meteor 1-26 Rocket 4.4 22:03:51 10° S 22:09:19 68° ESE 22:15:01 10° NNE
ALOS 2 3.4 22:07:09 10° S 22:11:21 43° W 22:15:34 10° NNW
ARIANE 5 R/B 3.6 22:07:56 10° SSW 22:12:04 38° W 22:16:16 10° NNW
NOSS 3-3 (C) 4.4 22:06:59 10° SW 22:12:25 44° SE 22:19:01 10° ENE
CZ-2C R/B 3.7 22:10:25 10° NNE 22:14:51 77° ESE 22:19:19 10° SSW
Cosmos 2219 Rocket 3.4 22:11:27 10° NW 22:16:15 29° WSW 22:21:03 10° S
Cosmos 2058 Rocket 3.2 22:12:18 10° S 22:16:39 69° ESE 22:20:59 10° NNE
Cosmos 44 Rocket 3.5 22:12:18 10° WSW 22:17:25 64° SSE 22:22:35 10° E
PSLV R/B 3.7 22:16:51 10° NNE 22:21:01 60° ESE 22:25:13 10° S
Meteor 1-14 Rocket 4.4 22:15:46 10° NNW 22:21:22 65° WSW 22:26:51 10° S
Cosmos 1898 Rocket 3.9 22:17:30 10° NW 22:22:30 50° WSW 22:27:29 10° SSE
Cosmos 2322 Rocket 3.9 22:21:40 10° WNW 22:25:36 20° WSW 22:29:33 10° SSW
Cosmos 1125 Rocket 4.2 22:22:01 10° NW 22:27:17 60° NNE 22:32:33 10° ESE
Cosmos 1437 Rocket 4.0 22:24:23 10° WSW 22:27:43 36° NW 22:31:06 10° NNE
SL-16 R/B 2.5 22:22:11 10° WNW 22:27:55 77° NNE 22:33:39 10° ESE
Cosmos 540 Rocket 3.9 22:24:03 10° S 22:28:58 47° ESE 22:33:54 10° NE
Cosmos 1461 3.7 22:27:23 10° SSW 22:30:30 26° SE 22:33:35 10° E
SL-19 R/B 4.5 22:30:43 10° SE 22:33:41 52° ENE 22:36:51 10° NNW
USA 234 4.2 22:28:37 10° E 22:34:07 28° SSE 22:39:36 10° SSW
Cosmos 1536 4.0 22:30:56 10° NNW 22:34:09 29° W 22:37:22 10° SSW
MetOp-A 4.4 22:29:35 10° S 22:34:25 49° WSW 22:39:02 10° NNW
Cosmos 2034 Rocket 4.3 22:29:11 10° SSW 22:35:34 72° WNW 22:41:56 10° NNE
ATLAS 2AS CENTAUR R/B 2.7 22:28:46 10° W 22:35:34 70° S 22:42:19 10° ESE
Meteor 2-9 Rocket 4.4 22:30:25 10° NNW 22:35:38 57° WSW 22:40:53 10° S
Cosmos 2082 Rocket 2.4 22:30:19 10° WSW 22:36:04 82° NNW 22:41:50 10° ENE
ACS3 Solar Sail 2.9 22:31:36 10° NNE 22:37:00 34° E 22:42:27 10° SSE
Cosmos 220 Rocket 3.9 22:34:05 10° SW 22:38:09 79° SE 22:42:18 10° NE
COSMOS 2428 3.3 22:34:55 10° NW 22:40:15 42° WSW 22:45:34 10° S
Cosmos 1707 2.1 22:38:51 10° SSW 22:41:42 71° WNW 22:44:34 10° NNE
Helios 1A 3.9 22:39:03 10° NNE 22:42:49 42° NW 22:46:32 10° SW
Cosmos 2237 Rocket 2.3 22:38:33 10° NW 22:44:10 61° SW 22:49:46 10° SSE
CZ-2C R/B 3.5 22:40:03 10° NNE 22:45:34 64° ESE 22:51:18 10° S
Cosmos 1980 3.9 22:42:10 10° NW 22:47:41 57° SW 22:53:13 10° SSE
